"Pseudo-MPEC" for C0VDM75

Created 2024 Dec 1 12:31:05 UT using Find_Orb

Click here for an explanation of pseudo-MPECs

 
 Astrometry: 
     C0VDM75* C2024 11 26.40910204 32 52.004+27 25 27.01   ~BQAl 22.29GVNEOCPV00
     C0VDM75  C2024 11 26.41472804 32 52.386+27 25 44.65   ~BQAl       VNEOCPV00
     C0VDM75  C2024 11 26.42033604 32 52.775+27 26 01.79   ~BQAl 22.35GVNEOCPV00
     C0VDM75  C2024 11 26.42593704 32 53.171+27 26 19.21   ~BQAl 21.81GVNEOCPV00
     C0VDM75  C2024 11 26.48813004 32 58.560+27 29 30.60   ~BQCV       VNEOCP291
     C0VDM75  C2024 11 26.49330004 32 59.020+27 29 46.30   ~BQCV       VNEOCP291
     C0VDM75  C2024 11 26.49845804 32 59.580+27 30 02.90   ~BQCV 22.0 RVNEOCP291

Station data:
(291) LPL/Spacewatch II  (N31.961669 W111.599905)  US/Arizona.  Observers J.
   V. Scotti, R. S. McMillan. 1.8-m f/2.7 reflector + CCD.
(V00) Kitt Peak-Bok  (N31.963125 W111.600190)  US/Arizona.  Observers T. A.
   Pruyne, B. M. Africano, E. J. Christensen, G. A. Farneth, D. C. Fuls, A.
   R. Gibbs, A. D. Grauer, H. Gröller, J. A. Johnson, R. A. Kowalski, S. M.
   Larson, G. J. Leonard, D. Rankin, R. L. Seaman, F. C. Shelly, K. W.
   Wierzchoś. 2.25-m reflector + 4x4K mosaic CCD.

Orbital elements:  C0VDM75
   Perihelion 2024 Nov 23.27419 +/- 36.9 TT =  6:34:49 (JD 2460637.77419)
Epoch 2024 Nov 26.0 TT = JDT 2460640.5   Earth MOID: 0.0602   Ma: 0.0349
M   1.91934918 +/- 22               (J2000 ecliptic)             AutoNEOCP
n   0.70413827 +/- 0.241            Peri.    2.93332 +/- 70
a   1.25130759 +/- 0.285            Node    58.63368 +/- 54
e   0.1624790 +/- 0.185             Incl.    3.02446 +/- 3.2
P   1.400/511.254d         H 27.80  G  0.15   U 11.8  SR
q 1.04799632 +/- 0.198    Q 1.45461887 +/- 1.27
From 7 observations 2024 Nov. 26 (2.1 hr); mean residual 0".42
Residuals in arcseconds: 
241126 V00  .70+  .33+    241126 V00  .76-  .36-    241126 291  .43+  .68+    
241126 V00  .19+  .24+    241126 291  .08+  .34-    
241126 V00  .29-  .24-    241126 291  .36-  .31-    

Ephemerides (geocentric):
Date (UTC) HH   RA             Dec           delta  r     elong  mag " sig PA
---- --------  ------------   ------------  ------ ------ -----  --- --------
2024 12 01 13  04 43 11.222   +31 55 42.78  .06445 1.0495 169.6 22.6  42d  81
2024 12 01 14  04 43 16.116   +31 57 45.15  .06448 1.0495 169.6 22.6  43d  81
2024 12 01 15  04 43 21.010   +31 59 47.36  .06451 1.0495 169.6 22.6  43d  81
2024 12 01 16  04 43 25.902   +32 01 49.41  .06453 1.0495 169.5 22.6  44d  81
2024 12 01 17  04 43 30.793   +32 03 51.30  .06456 1.0495 169.5 22.6  45d  81
2024 12 01 18  04 43 35.682   +32 05 53.03  .06459 1.0496 169.5 22.6  46d  81
2024 12 01 19  04 43 40.570   +32 07 54.59  .06461 1.0496 169.5 22.6  46d  81
2024 12 01 20  04 43 45.456   +32 09 55.99  .06464 1.0496 169.4 22.6  47d  80
2024 12 01 21  04 43 50.341   +32 11 57.22  .06467 1.0496 169.4 22.6  48d  80
2024 12 01 22  04 43 55.225   +32 13 58.29  .06469 1.0496 169.4 22.6  48d  80
2024 12 01 23  04 44 00.107   +32 15 59.20  .06472 1.0496 169.4 22.6  49d  79
2024 12 02 00  04 44 04.988   +32 17 59.94  .06475 1.0497 169.4 22.6  49d  79
2024 12 02 01  04 44 09.867   +32 20 00.52  .06477 1.0497 169.3 22.6  49d  78
2024 12 02 02  04 44 14.745   +32 22 00.93  .06480 1.0497 169.3 22.6  50d  78
2024 12 02 03  04 44 19.622   +32 24 01.18  .06483 1.0497 169.3 22.6  50d  78
2024 12 02 04  04 44 24.497   +32 26 01.26  .06485 1.0497 169.3 22.6  50d  77
2024 12 02 05  04 44 29.371   +32 28 01.18  .06488 1.0497 169.3 22.6  51d  77
2024 12 02 06  04 44 34.243   +32 30 00.93  .06491 1.0498 169.2 22.6  51d  76
2024 12 02 07  04 44 39.115   +32 32 00.51  .06494 1.0498 169.2 22.6  51d  76
2024 12 02 08  04 44 43.984   +32 33 59.93  .06497 1.0498 169.2 22.6  51d  76
2024 12 02 09  04 44 48.853   +32 35 59.18  .06499 1.0498 169.2 22.6  52d  75
2024 12 02 10  04 44 53.720   +32 37 58.26  .06502 1.0498 169.1 22.6  52d  75
2024 12 02 11  04 44 58.585   +32 39 57.18  .06505 1.0498 169.1 22.6  52d  75
2024 12 02 12  04 45 03.449   +32 41 55.93  .06508 1.0498 169.1 22.6  52d  75
2024 12 02 13  04 45 08.312   +32 43 54.51  .06510 1.0499 169.1 22.6  52d  75
2024 12 02 14  04 45 13.174   +32 45 52.92  .06513 1.0499 169.1 22.6  52d  74
2024 12 02 15  04 45 18.034   +32 47 51.16  .06516 1.0499 169.0 22.6  53d  74
2024 12 02 16  04 45 22.893   +32 49 49.24  .06519 1.0499 169.0 22.6  53d  74
2024 12 02 17  04 45 27.750   +32 51 47.15  .06522 1.0499 169.0 22.6  53d  74
2024 12 02 18  04 45 32.606   +32 53 44.88  .06525 1.0500 169.0 22.6  53d  74
2024 12 02 19  04 45 37.461   +32 55 42.45  .06528 1.0500 168.9 22.6  53d  74
2024 12 02 20  04 45 42.315   +32 57 39.85  .06530 1.0500 168.9 22.6  53d  75
2024 12 02 21  04 45 47.167   +32 59 37.07  .06533 1.0500 168.9 22.6  54d  75
2024 12 02 22  04 45 52.018   +33 01 34.13  .06536 1.0500 168.9 22.6  54d  75
2024 12 02 23  04 45 56.867   +33 03 31.02  .06539 1.0500 168.9 22.7  54d  75
2024 12 03 00  04 46 01.715   +33 05 27.74  .06542 1.0501 168.8 22.7  54d  75
2024 12 03 01  04 46 06.562   +33 07 24.28  .06545 1.0501 168.8 22.7  55d  75
2024 12 03 02  04 46 11.407   +33 09 20.66  .06548 1.0501 168.8 22.7  55d  75
2024 12 03 03  04 46 16.252   +33 11 16.86  .06551 1.0501 168.8 22.7  55d  75
2024 12 03 04  04 46 21.094   +33 13 12.89  .06554 1.0501 168.7 22.7  55d  75
2024 12 03 05  04 46 25.936   +33 15 08.75  .06557 1.0501 168.7 22.7  56d  75
2024 12 03 06  04 46 30.776   +33 17 04.44  .06560 1.0502 168.7 22.7  56d  75
2024 12 03 07  04 46 35.615   +33 18 59.95  .06563 1.0502 168.7 22.7  56d  75
2024 12 03 08  04 46 40.453   +33 20 55.29  .06566 1.0502 168.7 22.7  56d  76
2024 12 03 09  04 46 45.289   +33 22 50.46  .06569 1.0502 168.6 22.7  57d  76
2024 12 03 10  04 46 50.124   +33 24 45.46  .06572 1.0502 168.6 22.7  57d  76
2024 12 03 11  04 46 54.958   +33 26 40.28  .06575 1.0503 168.6 22.7  57d  76
2024 12 03 12  04 46 59.790   +33 28 34.93  .06578 1.0503 168.6 22.7  57d  76